When you browse on this site, cookies collect data to enhance your experience and personalize the content and advertising you see.
Visit our Privacy Policy to learn more. By continuing to use the site, you agree to this use of cookies and data.
  • In Hungary
  • List of Countries
  • For 7 days
  • Water Temperature
  • Weather Map
  • News
  • Weather Widgets
  • user-avatar
    Login

    Hourly Weather San Jose de La Montana

    Today, 26 August, Monday

    Time Temperature Precipitation Wind Pressure Humidity
    00:00 +10°C° 0.3 mm 1 mps 554 mmHg 93%
    01:00 +10°C° 0.3 mm 1 mps 554 mmHg 92%
    02:00 +9°C° 0.1 mm 0 mps 554 mmHg 92%
    03:00 +9°C° 0.1 mm 0 mps 553 mmHg 91%
    04:00 +9°C° 0.1 mm 0 mps 553 mmHg 91%
    05:00 +10°C° 0 mm 0 mps 554 mmHg 90%
    06:00 +10°C° 0 mm 0 mps 554 mmHg 89%
    07:00 +11°C° 0 mm 0 mps 555 mmHg 89%
    08:00 +14°C° 0.1 mm 1 mps 556 mmHg 79%
    09:00 +16°C° 0.1 mm 1 mps 557 mmHg 70%
    10:00 +19°C° 0.1 mm 1 mps 558 mmHg 61%
    11:00 +20°C° 0.6 mm 1 mps 558 mmHg 61%
    12:00 +20°C° 0.6 mm 1 mps 558 mmHg 61%
    13:00 +21°C° 0.6 mm 1 mps 558 mmHg 61%
    14:00 +20°C° 0.7 mm 1 mps 556 mmHg 68%
    15:00 +19°C° 0.7 mm 1 mps 555 mmHg 75%
    16:00 +18°C° 0.7 mm 1 mps 554 mmHg 82%
    17:00 +15°C° 0.7 mm 1 mps 554 mmHg 86%
    18:00 +14°C° 0.7 mm 1 mps 554 mmHg 90%
    19:00 +12°C° 0.7 mm 1 mps 553 mmHg 95%
    20:00 +12°C° 0.8 mm 1 mps 554 mmHg 94%
    21:00 +11°C° 0.8 mm 1 mps 554 mmHg 94%
    22:00 +11°C° 0.8 mm 1 mps 554 mmHg 93%
    23:00 +11°C° 0.1 mm 1 mps 554 mmHg 93%

    Tomorrow, 27 August, Tuesday

    Time Temperature Precipitation Wind Pressure Humidity
    00:00 +11°C° 0.1 mm 1 mps 554 mmHg 92%
    01:00 +10°C° 0.1 mm 1 mps 553 mmHg 91%
    02:00 +10°C° 0.1 mm 1 mps 553 mmHg 91%
    03:00 +10°C° 0.1 mm 1 mps 553 mmHg 91%
    04:00 +10°C° 0.1 mm 1 mps 553 mmHg 91%
    05:00 +11°C° 0.1 mm 1 mps 554 mmHg 91%
    06:00 +11°C° 0.1 mm 1 mps 554 mmHg 90%
    07:00 +12°C° 0.1 mm 1 mps 555 mmHg 90%
    08:00 +14°C° 0.2 mm 1 mps 556 mmHg 82%
    09:00 +16°C° 0.2 mm 1 mps 557 mmHg 73%
    10:00 +19°C° 0.2 mm 1 mps 558 mmHg 65%
    11:00 +20°C° 0.7 mm 1 mps 558 mmHg 64%
    12:00 +20°C° 0.7 mm 1 mps 558 mmHg 64%
    13:00 +21°C° 0.7 mm 1 mps 557 mmHg 63%
    14:00 +20°C° 1 mm 1 mps 556 mmHg 67%
    15:00 +19°C° 1 mm 1 mps 556 mmHg 72%
    16:00 +19°C° 1 mm 1 mps 555 mmHg 76%
    17:00 +16°C° 0.9 mm 1 mps 554 mmHg 81%
    18:00 +14°C° 0.9 mm 1 mps 554 mmHg 87%
    19:00 +12°C° 0.9 mm 1 mps 553 mmHg 93%
    20:00 +12°C° 0.9 mm 1 mps 553 mmHg 93%
    21:00 +12°C° 0.9 mm 1 mps 554 mmHg 93%
    22:00 +11°C° 0.9 mm 1 mps 554 mmHg 93%
    23:00 +11°C° 0.2 mm 1 mps 554 mmHg 92%

    Day after tomorrow, 28 August, Wednesday

    Time Temperature Precipitation Wind Pressure Humidity
    00:00 +11°C° 0.2 mm 1 mps 553 mmHg 92%
    01:00 +11°C° 0.2 mm 1 mps 553 mmHg 91%
    02:00 +10°C° 0.2 mm 0 mps 553 mmHg 91%
    03:00 +10°C° 0.2 mm 0 mps 553 mmHg 91%
    04:00 +10°C° 0.2 mm 0 mps 553 mmHg 91%
    05:00 +10°C° 0.1 mm 0 mps 554 mmHg 91%
    06:00 +10°C° 0.1 mm 0 mps 554 mmHg 91%
    07:00 +11°C° 0.1 mm 0 mps 555 mmHg 91%
    08:00 +14°C° 0.2 mm 1 mps 556 mmHg 82%
    09:00 +16°C° 0.2 mm 1 mps 557 mmHg 73%
    10:00 +19°C° 0.2 mm 1 mps 559 mmHg 65%
    11:00 +20°C° 0.8 mm 1 mps 558 mmHg 64%
    12:00 +20°C° 0.8 mm 1 mps 558 mmHg 63%
    13:00 +21°C° 0.8 mm 1 mps 558 mmHg 63%
    14:00 +20°C° 1.1 mm 1 mps 557 mmHg 71%
    15:00 +18°C° 1.1 mm 1 mps 556 mmHg 79%
    16:00 +16°C° 1.1 mm 1 mps 555 mmHg 87%
    17:00 +15°C° 1.3 mm 1 mps 554 mmHg 90%
    18:00 +13°C° 1.3 mm 1 mps 554 mmHg 92%
    19:00 +11°C° 1.3 mm 0 mps 554 mmHg 95%
    20:00 +11°C° 1.2 mm 0 mps 554 mmHg 95%
    21:00 +11°C° 1.2 mm 1 mps 554 mmHg 95%
    22:00 +11°C° 1.2 mm 1 mps 555 mmHg 95%
    23:00 +11°C° 0.8 mm 1 mps 554 mmHg 95%

    29 August, Thursday

    Time Temperature Precipitation Wind Pressure Humidity
    00:00 +11°C° 0.8 mm 1 mps 554 mmHg 95%
    01:00 +10°C° 0.8 mm 0 mps 554 mmHg 96%
    02:00 +10°C° 0.3 mm 0 mps 554 mmHg 95%
    03:00 +10°C° 0.3 mm 0 mps 554 mmHg 95%
    04:00 +9°C° 0.3 mm 0 mps 553 mmHg 95%
    05:00 +10°C° 0 mm 0 mps 554 mmHg 94%
    06:00 +10°C° 0 mm 0 mps 554 mmHg 94%
    07:00 +10°C° 0 mm 0 mps 555 mmHg 93%
    08:00 +12°C° 0 mm 0 mps 556 mmHg 85%
    09:00 +15°C° 0 mm 1 mps 557 mmHg 76%
    10:00 +16°C° 0 mm 1 mps 558 mmHg 67%
    11:00 +18°C° 0.2 mm 1 mps 558 mmHg 64%
    12:00 +19°C° 0.2 mm 1 mps 558 mmHg 61%
    13:00 +20°C° 0.2 mm 1 mps 558 mmHg 57%
    14:00 +19°C° 0.5 mm 1 mps 557 mmHg 64%
    15:00 +19°C° 0.5 mm 1 mps 556 mmHg 71%
    16:00 +18°C° 0.5 mm 1 mps 556 mmHg 77%
    17:00 +15°C° 0.5 mm 1 mps 555 mmHg 83%
    18:00 +13°C° 0.5 mm 1 mps 554 mmHg 89%
    19:00 +11°C° 0.5 mm 0 mps 554 mmHg 95%
    20:00 +10°C° 0.3 mm 0 mps 554 mmHg 95%
    21:00 +10°C° 0.3 mm 0 mps 554 mmHg 94%
    22:00 +10°C° 0.3 mm 1 mps 555 mmHg 93%
    23:00 +10°C° 0 mm 1 mps 554 mmHg 93%

    30 August, Friday

    Time Temperature Precipitation Wind Pressure Humidity
    00:00 +9°C° 0 mm 0 mps 554 mmHg 93%
    01:00 +9°C° 0 mm 0 mps 554 mmHg 93%
    02:00 +9°C° 0 mm 0 mps 554 mmHg 93%
    03:00 +8°C° 0 mm 0 mps 553 mmHg 93%
    04:00 +8°C° 0 mm 0 mps 553 mmHg 93%
    05:00 +9°C° 0 mm 0 mps 554 mmHg 92%
    06:00 +9°C° 0 mm 0 mps 555 mmHg 91%
    07:00 +10°C° 0 mm 0 mps 555 mmHg 90%
    08:00 +12°C° 0 mm 0 mps 556 mmHg 81%
    09:00 +15°C° 0 mm 1 mps 558 mmHg 71%
    10:00 +19°C° 0 mm 1 mps 559 mmHg 62%
    11:00 +19°C° 0.8 mm 1 mps 559 mmHg 66%
    12:00 +19°C° 0.8 mm 1 mps 558 mmHg 70%
    13:00 +19°C° 0.8 mm 1 mps 557 mmHg 74%
    14:00 +18°C° 0.9 mm 1 mps 556 mmHg 78%
    15:00 +18°C° 0.9 mm 1 mps 556 mmHg 81%
    16:00 +16°C° 0.9 mm 1 mps 555 mmHg 84%
    17:00 +15°C° 0.5 mm 1 mps 555 mmHg 88%
    18:00 +13°C° 0.5 mm 1 mps 554 mmHg 92%
    19:00 +11°C° 0.5 mm 0 mps 554 mmHg 96%
    20:00 +10°C° 0.5 mm 0 mps 554 mmHg 95%
    21:00 +10°C° 0.5 mm 0 mps 554 mmHg 95%
    22:00 +10°C° 0.5 mm 0 mps 555 mmHg 94%
    23:00 +10°C° 0.4 mm 0 mps 555 mmHg 94%

    31 August, Saturday

    Time Temperature Precipitation Wind Pressure Humidity
    00:00 +10°C° 0.4 mm 1 mps 554 mmHg 94%
    01:00 +10°C° 0.4 mm 1 mps 554 mmHg 93%
    02:00 +9°C° 0.3 mm 0 mps 554 mmHg 94%
    03:00 +9°C° 0.3 mm 0 mps 554 mmHg 94%
    04:00 +9°C° 0.3 mm 0 mps 554 mmHg 94%
    05:00 +9°C° 0 mm 0 mps 554 mmHg 93%
    06:00 +10°C° 0 mm 0 mps 555 mmHg 92%
    07:00 +10°C° 0 mm 0 mps 555 mmHg 91%
    08:00 +12°C° 0.1 mm 0 mps 556 mmHg 83%
    09:00 +15°C° 0.1 mm 1 mps 557 mmHg 76%
    10:00 +18°C° 0.1 mm 1 mps 559 mmHg 69%
    11:00 +18°C° 0.8 mm 1 mps 558 mmHg 69%
    12:00 +19°C° 0.8 mm 1 mps 558 mmHg 70%
    13:00 +19°C° 0.8 mm 1 mps 557 mmHg 71%
    14:00 +18°C° 1.2 mm 1 mps 556 mmHg 77%
    15:00 +16°C° 1.2 mm 1 mps 556 mmHg 83%
    16:00 +15°C° 1.2 mm 1 mps 555 mmHg 90%
    17:00 +14°C° 0.9 mm 1 mps 554 mmHg 92%
    18:00 +13°C° 0.9 mm 1 mps 554 mmHg 94%
    19:00 +11°C° 0.9 mm 0 mps 554 mmHg 96%
    20:00 +10°C° 0.6 mm 0 mps 554 mmHg 96%
    21:00 +10°C° 0.6 mm 0 mps 554 mmHg 96%
    22:00 +11°C° 0.6 mm 1 mps 555 mmHg 96%
    23:00 +11°C° 0.4 mm 1 mps 554 mmHg 96%
    Show more